Weather History for Asturias, Spain

Change the Weather History Date:

Thursday, March 21, 2013

  Actual Average Record
Temperature  
Mean Temperature 57 °F -  
Max Temperature 68 °F 58 °F 71 °F (2005)
Min Temperature 46 °F 46 °F 37 °F (2012)
Degree Days  
Heating Degree Days 8    
Growing Degree Days 7 (Base 50)    
Moisture  
Dew Point 40 °F    
Average Humidity 51    
Maximum Humidity 72    
Minimum Humidity 33    
Precipitation  
Precipitation 0.00 in - - ()
Sea Level Pressure  
Sea Level Pressure 29.71 in    
Wind  
Wind Speed 5 mph ()    
Max Wind Speed 13 mph    
Max Gust Speed -    
Visibility 6.2 miles    
Events Rain    
Averages and records for this station are not official NWS values.
T = Trace of Precipitation, MM = Missing Value Source: Averaged Metar Reports

Daily Weather History Graph

Daily Weather History Graph

Search for Another Location

Airport:

Trip Planner

Search our weather history database for the weather conditions in past years. The results will help you decide how hot, cold, wet, or windy it might be!

Date:

Astronomy

Mar. 21, 2013 Rise Set
Actual Time 7:25 AM CET 7:37 PM CET
Civil Twilight 6:56 AM CET 8:06 PM CET
Nautical Twilight 6:23 AM CET 8:40 PM CET
Astronomical Twilight 5:49 AM CET 9:14 PM CET
Moon 1:45 PM CET (3/21) 3:47 AM CET (3/21)
Length of Visible Light 13h 09m
Length of Day
12h 12m
Waxing Gibbous, 66% of the Moon is Illuminated
Mar 21
Waxing Gibbous
Mar 27
Full
Apr 3
Last Quarter
Apr 10
New
Apr 18
First Quarter

Hourly Weather History & Observations

Time (CET) Temp. Windchill Dew Point Humidity Pressure Visibility Wind Dir Wind Speed Gust Speed Precip Events Conditions
6:00 AM 46.4 °F - 35.6 °F 66% 29.80 in - Variable 1.2 mph - N/A   Clear
6:30 AM 48.2 °F - 35.6 °F 62% 29.80 in - NNW 4.6 mph - N/A   Clear
7:00 AM 46.4 °F 43.5 °F 37.4 °F 71% 29.80 in - SW 5.8 mph - N/A   Clear
7:30 AM 48.2 °F - 37.4 °F 66% 29.77 in - Variable 2.3 mph - N/A   Clear
8:00 AM 48.2 °F - 39.2 °F 71% 29.80 in - Variable 2.3 mph - N/A   Clear
8:19 AM 48.2 °F - 39.2 °F 71% 29.80 in 6.2 mi Variable 1.2 mph - N/A Rain Light Rain
8:30 AM 48.2 °F - 39.2 °F 71% 29.80 in 6.2 mi Variable 2.3 mph - N/A   Scattered Clouds
9:00 AM 51.8 °F - 42.8 °F 71% 29.77 in 6.2 mi Variable 3.5 mph - N/A   Scattered Clouds
9:30 AM 53.6 °F - 44.6 °F 72% 29.77 in 6.2 mi Variable 2.3 mph - N/A   Partly Cloudy
10:00 AM 53.6 °F - 44.6 °F 72% 29.77 in 6.2 mi Variable 2.3 mph - N/A   Partly Cloudy
10:30 AM 55.4 °F - 44.6 °F 67% 29.77 in 6.2 mi SSW 3.5 mph - N/A   Partly Cloudy
11:30 AM 57.2 °F - 44.6 °F 63% 29.77 in 6.2 mi Variable 2.3 mph - N/A   Partly Cloudy
12:00 PM 59.0 °F - 44.6 °F 59% 29.74 in - South 6.9 mph - N/A   Clear
12:30 PM 60.8 °F - 44.6 °F 55% 29.74 in - South 4.6 mph - N/A   Clear
1:00 PM 62.6 °F - 41.0 °F 45% 29.74 in - SSE 9.2 mph - N/A   Clear
1:30 PM 62.6 °F - 42.8 °F 48% 29.74 in - SE 9.2 mph - N/A   Clear
2:00 PM 62.6 °F - 41.0 °F 45% 29.71 in - ESE 9.2 mph - N/A   Clear
2:30 PM 62.6 °F - 42.8 °F 48% 29.71 in - ESE 6.9 mph - N/A   Clear
3:00 PM 62.6 °F - 42.8 °F 48% 29.71 in - East 6.9 mph - N/A   Clear
3:30 PM 64.4 °F - 42.8 °F 45% 29.68 in - SE 4.6 mph - N/A   Clear
4:00 PM 64.4 °F - 42.8 °F 45% 29.68 in 6.2 mi ESE 6.9 mph - N/A   Partly Cloudy
4:30 PM 66.2 °F - 41.0 °F 40% 29.65 in 6.2 mi SE 10.4 mph - N/A   Partly Cloudy
5:00 PM 66.2 °F - 39.2 °F 37% 29.65 in 6.2 mi ESE 10.4 mph - N/A   Partly Cloudy
5:30 PM 68.0 °F - 37.4 °F 33% 29.65 in - SSE 10.4 mph - N/A   Clear
6:00 PM 68.0 °F - 37.4 °F 33% 29.62 in - SE 12.7 mph - N/A   Clear
6:30 PM 68.0 °F - 37.4 °F 33% 29.65 in - SSE 10.4 mph - N/A   Clear
7:00 PM 64.4 °F - 37.4 °F 37% 29.65 in - SSE 11.5 mph - N/A   Clear
7:30 PM 64.4 °F - 37.4 °F 37% 29.65 in 6.2 mi SSE 10.4 mph - N/A   Partly Cloudy
8:00 PM 62.6 °F - 39.2 °F 42% 29.65 in 6.2 mi SSE 9.2 mph - N/A   Partly Cloudy
8:30 PM 62.6 °F - 37.4 °F 39% 29.65 in 6.2 mi SSE 8.1 mph - N/A   Partly Cloudy
9:00 PM 62.6 °F - 37.4 °F 39% 29.65 in 6.2 mi SSE 6.9 mph - N/A   Partly Cloudy
9:30 PM 62.6 °F - 37.4 °F 39% 29.65 in 6.2 mi South 6.9 mph - N/A   Partly Cloudy
10:00 PM 60.8 °F - 37.4 °F 42% 29.65 in 6.2 mi South 6.9 mph - N/A   Partly Cloudy
10:30 PM 62.6 °F - 35.6 °F 37% 29.65 in 6.2 mi South 8.1 mph - N/A   Partly Cloudy
11:00 PM 62.6 °F - 35.6 °F 37% 29.65 in 6.2 mi SSE 5.8 mph - N/A   Partly Cloudy
11:30 PM 59.0 °F - 37.4 °F 45% 29.62 in 6.2 mi SE 6.9 mph - N/A   Partly Cloudy